Home   Weather   Charleston   Past weeks
Flag for USA

Past Weather in Charleston, South Carolina, USA — August 2012

Now
55 °F

Light rain. Fog.


Feels Like: 54 °F
Forecast: 66 / 59 °F
Wind: 6 mph from Southeast

Location: Charleston Air Force Base Reporting Station

Current Time: Feb 25, 2020 at 5:43:31 am

Latest Report: Feb 25, 2020 at 5:20 am


Visibility: 2 mi

Pressure: 29.91 "Hg

Humidity: 100%

Dew Point: 55 °F

Location of CharlestonLocation

August 2012 Weather in Charleston — Graph

°F

High & Low Weather Summary for August 2012

 TemperatureHumidityPressure
High93 °F (Aug 2, 12:56 pm)100% (Aug 6, 6:01 am)30.23 "Hg (Aug 6, 6:01 am)
Low64 °F (Aug 25, 5:56 am)41% (Aug 13, 12:56 pm)29.82 "Hg (Aug 18, 5:56 pm)
Average79 °F81%30.00 "Hg
* Reported Aug 1 12:56 am — Aug 31 11:56 pm, Charleston. Weather by CustomWeather, © 2020

Note: Actual official high and low records may vary slightly from our data, if they occured in-between our weather recording intervals... More about our weather records

Charleston Weather History for August 1, 2012

Scroll right to see more
 ConditionsComfort  
Time TempWeatherWind HumidityBarometerVisibility
12:56 am
Wed, Aug 1
75 °FLight rain. Mostly cloudy.3 mph94%29.94 "Hg9 mi
1:56 am76 °FLight rain. Mostly cloudy.No wind94%29.93 "Hg8 mi
2:56 am76 °FOvercast.No wind94%29.90 "Hg7 mi
3:56 am76 °FMostly cloudy.No wind94%29.89 "Hg7 mi
4:56 am76 °FFog.No wind94%29.89 "Hg6 mi
5:56 am76 °FPartly cloudy.6 mph94%29.88 "Hg10 mi
6:56 am76 °FScattered clouds.6 mph94%29.89 "Hg10 mi
7:56 am76 °FPartly sunny.5 mph94%29.90 "Hg10 mi
8:56 am77 °FBroken clouds.7 mph90%29.92 "Hg8 mi
9:56 am80 °FScattered clouds.3 mph85%29.92 "Hg10 mi
10:56 am83 °FScattered clouds.7 mph72%29.91 "Hg10 mi
11:56 am86 °FBroken clouds.5 mph67%29.91 "Hg10 mi
12:56 pm86 °FScattered clouds.7 mph65%29.90 "Hg10 mi
1:56 pm88 °FScattered clouds.5 mph59%29.89 "Hg10 mi
2:56 pm90 °FBroken clouds.7 mph56%29.87 "Hg10 mi
3:56 pm90 °FScattered clouds.6 mph54%29.86 "Hg9 mi
4:56 pm85 °FPartly sunny.7 mph68%29.86 "Hg10 mi
5:56 pm83 °FBroken clouds.14 mph72%29.86 "Hg10 mi
6:56 pm84 °FScattered clouds.7 mph72%29.85 "Hg10 mi
7:56 pm82 °FScattered clouds.7 mph77%29.87 "Hg10 mi
8:56 pm81 °FPassing clouds.7 mph82%29.89 "Hg10 mi
9:56 pm79 °FPassing clouds.7 mph84%29.90 "Hg10 mi
10:56 pm78 °FPassing clouds.6 mph84%29.91 "Hg10 mi
11:56 pm77 °FPassing clouds.3 mph85%29.91 "Hg10 mi
Weather by CustomWeather, © 2020

See weather overview

Advertising